| time (UTC) | temp F | wind direction | speed MPH | gust MPH | rain 1hr in | rain 24hr in | rain mn in | humidity % | barometer mb |
| 20260901123013 | 74 | 322 | 0.0 | 0.0 | 0.00 | 0.10 | 0.00 | 78 | 1014.7 |
| 20260901122534 | 74 | 318 | 1.0 | 3.0 | 0.00 | 0.10 | 0.00 | 78 | 1014.7 |
| 20260901122013 | 73 | 317 | 1.0 | 5.0 | 0.00 | 0.10 | 0.00 | 78 | 1014.6 |
| 20260901121513 | 73 | 343 | 0.0 | 4.0 | 0.00 | 0.11 | 0.00 | 78 | 1014.6 |
| 20260901121013 | 73 | 359 | 0.0 | 4.0 | 0.00 | 0.13 | 0.00 | 78 | 1014.6 |
| 20260901120513 | 72 | 0 | 0.0 | 0.0 | 0.00 | 0.16 | 0.00 | 78 | 1014.5 |
| 20260901120013 | 72 | 0 | 0.0 | 0.0 | 0.00 | 0.16 | 0.00 | 78 | 1014.3 |
| 20260901115513 | 72 | 0 | 0.0 | 0.0 | 0.00 | 0.16 | 0.00 | 78 | 1014.3 |
| 20260901115013 | 72 | 0 | 0.0 | 0.0 | 0.00 | 0.16 | 0.00 | 78 | 1014.2 |
| 20260901114534 | 72 | 0 | 0.0 | 0.0 | 0.00 | 0.16 | 0.00 | 78 | 1014.3 |
| 20260901114034 | 71 | 331 | 0.0 | 0.0 | 0.00 | 0.16 | 0.00 | 78 | 1014.3 |
| 20260901113513 | 71 | 331 | 0.0 | 1.0 | 0.00 | 0.16 | 0.00 | 78 | 1014.2 |
| 20260901113013 | 71 | 323 | 0.0 | 1.0 | 0.00 | 0.16 | 0.00 | 78 | 1014.2 |
| 20260901112534 | 71 | 318 | 0.0 | 1.0 | 0.00 | 0.16 | 0.00 | 78 | 1014.2 |
| 20260901112013 | 71 | 318 | 0.0 | 3.0 | 0.00 | 0.16 | 0.00 | 78 | 1014.2 |
| 20260901111513 | 71 | 319 | 0.0 | 0.0 | 0.00 | 0.16 | 0.00 | 78 | 1014.0 |
| 20260901111034 | 71 | 319 | 0.0 | 1.0 | 0.00 | 0.16 | 0.00 | 78 | 1014.1 |
| 20260901110513 | 71 | 319 | 0.0 | 4.0 | 0.00 | 0.16 | 0.00 | 78 | 1014.1 |
| 20260901110013 | 71 | 317 | 0.0 | 3.0 | 0.00 | 0.16 | 0.00 | 78 | 1014.0 |
| 20260901105513 | 71 | 0 | 0.0 | 1.0 | 0.00 | 0.16 | 0.00 | 78 | 1013.9 |
| 20260901105013 | 71 | 0 | 0.0 | 0.0 | 0.00 | 0.16 | 0.00 | 77 | 1013.8 |
| 20260901104513 | 71 | 317 | 0.0 | 0.0 | 0.00 | 0.16 | 0.00 | 77 | 1013.8 |
| 20260901104013 | 71 | 317 | 0.0 | 4.0 | 0.00 | 0.16 | 0.00 | 77 | 1013.8 |
| 20260901103513 | 71 | 318 | 0.0 | 4.0 | 0.00 | 0.16 | 0.00 | 77 | 1013.8 |
| 20260901103013 | 71 | 321 | 0.0 | 3.0 | 0.00 | 0.16 | 0.00 | 77 | 1013.7 |
| 20260901102513 | 71 | 324 | 0.0 | 5.0 | 0.00 | 0.16 | 0.00 | 77 | 1013.7 |
| 20260901102034 | 71 | 332 | 0.0 | 3.0 | 0.00 | 0.16 | 0.00 | 77 | 1013.6 |
| 20260901101513 | 71 | 334 | 1.0 | 4.0 | 0.00 | 0.16 | 0.00 | 77 | 1013.5 |
| 20260901101013 | 71 | 336 | 0.0 | 5.0 | 0.00 | 0.16 | 0.00 | 77 | 1013.6 |
| 20260901100513 | 71 | 347 | 0.0 | 3.0 | 0.00 | 0.16 | 0.00 | 77 | 1013.6 |
| 20260901100034 | 72 | 336 | 1.0 | 4.0 | 0.00 | 0.16 | 0.00 | 77 | 1013.6 |
| 20260901095534 | 72 | 319 | 1.0 | 5.0 | 0.00 | 0.16 | 0.00 | 77 | 1013.7 |
| 20260901095013 | 72 | 279 | 1.0 | 5.0 | 0.00 | 0.16 | 0.00 | 77 | 1013.4 |
| 20260901094513 | 72 | 283 | 2.0 | 8.0 | 0.00 | 0.16 | 0.00 | 77 | 1013.5 |
| 20260901094013 | 72 | 297 | 2.0 | 9.0 | 0.00 | 0.16 | 0.00 | 77 | 1013.5 |
| 20260901093513 | 72 | 310 | 2.0 | 4.0 | 0.00 | 0.16 | 0.00 | 77 | 1013.5 |
| 20260901093013 | 72 | 312 | 1.0 | 8.0 | 0.00 | 0.16 | 0.00 | 77 | 1013.4 |
| 20260901092513 | 72 | 312 | 1.0 | 5.0 | 0.00 | 0.16 | 0.00 | 77 | 1013.3 |
| 20260901092034 | 72 | 305 | 1.0 | 5.0 | 0.00 | 0.16 | 0.00 | 77 | 1013.4 |
| 20260901091512 | 71 | 296 | 1.0 | 5.0 | 0.00 | 0.16 | 0.00 | 77 | 1013.3 |
| 20260901091013 | 71 | 300 | 1.0 | 9.0 | 0.00 | 0.16 | 0.00 | 77 | 1013.2 |
| 20260901090513 | 71 | 310 | 1.0 | 5.0 | 0.00 | 0.16 | 0.00 | 77 | 1013.3 |
| 20260901090013 | 71 | 308 | 1.0 | 7.0 | 0.00 | 0.16 | 0.00 | 77 | 1013.3 |
| 20260901085513 | 71 | 297 | 1.0 | 4.0 | 0.00 | 0.16 | 0.00 | 77 | 1013.3 |
| 20260901085013 | 71 | 293 | 1.0 | 4.0 | 0.00 | 0.16 | 0.00 | 77 | 1013.3 |
| 20260901084513 | 71 | 291 | 1.0 | 7.0 | 0.00 | 0.16 | 0.00 | 77 | 1013.3 |
| 20260901084013 | 71 | 288 | 1.0 | 5.0 | 0.00 | 0.16 | 0.00 | 77 | 1013.2 |
| 20260901083534 | 71 | 290 | 1.0 | 8.0 | 0.00 | 0.16 | 0.00 | 77 | 1013.1 |
| 20260901083013 | 71 | 304 | 1.0 | 8.0 | 0.00 | 0.16 | 0.00 | 77 | 1013.1 |
| 20260901082513 | 71 | 317 | 1.0 | 3.0 | 0.00 | 0.16 | 0.00 | 77 | 1013.0 |
| 20260901082013 | 71 | 312 | 1.0 | 5.0 | 0.00 | 0.16 | 0.00 | 77 | 1013.1 |
| 20260901081513 | 71 | 298 | 1.0 | 3.0 | 0.00 | 0.16 | 0.00 | 77 | 1013.0 |
| 20260901081013 | 71 | 296 | 1.0 | 7.0 | 0.00 | 0.16 | 0.00 | 77 | 1013.2 |
| 20260901080513 | 71 | 298 | 2.0 | 7.0 | 0.00 | 0.16 | 0.00 | 78 | 1013.1 |
| 20260901080013 | 71 | 299 | 2.0 | 5.0 | 0.00 | 0.16 | 0.00 | 78 | 1013.1 |
| 20260901075513 | 71 | 296 | 2.0 | 7.0 | 0.00 | 0.16 | 0.00 | 78 | 1013.1 |
| 20260901075013 | 71 | 286 | 1.0 | 8.0 | 0.00 | 0.16 | 0.00 | 78 | 1013.1 |
| 20260901074512 | 71 | 277 | 0.0 | 4.0 | 0.00 | 0.16 | 0.00 | 78 | 1013.0 |
| 20260901074012 | 70 | 277 | 1.0 | 0.0 | 0.00 | 0.16 | 0.00 | 78 | 1013.0 |
| 20260901073512 | 70 | 277 | 1.0 | 8.0 | 0.00 | 0.16 | 0.00 | 78 | 1012.9 |
| 20260901073034 | 70 | 278 | 0.0 | 0.0 | 0.00 | 0.16 | 0.00 | 78 | 1012.9 |
| 20260901072513 | 70 | 265 | 1.0 | 4.0 | 0.00 | 0.16 | 0.00 | 78 | 1013.0 |
| 20260901072013 | 70 | 253 | 0.0 | 4.0 | 0.00 | 0.16 | 0.00 | 78 | 1013.0 |
| 20260901071513 | 70 | 0 | 0.0 | 0.0 | 0.00 | 0.16 | 0.00 | 78 | 1013.0 |
| 20260901071013 | 70 | 167 | 0.0 | 0.0 | 0.00 | 0.16 | 0.00 | 78 | 1013.1 |
| 20260901070512 | 70 | 167 | 0.0 | 5.0 | 0.00 | 0.16 | 0.00 | 78 | 1013.2 |
| 20260901070013 | 70 | 0 | 0.0 | 0.0 | 0.00 | 0.16 | 0.00 | 78 | 1013.2 |
| 20260901065533 | 70 | 0 | 0.0 | 0.0 | 0.00 | 0.16 | 0.00 | 78 | 1013.3 |
| 20260901065013 | 70 | 0 | 0.0 | 0.0 | 0.00 | 0.16 | 0.00 | 78 | 1013.4 |
| 20260901064513 | 70 | 0 | 0.0 | 0.0 | 0.00 | 0.17 | 0.00 | 78 | 1013.4 |
| 20260901064013 | 70 | 0 | 0.0 | 0.0 | 0.00 | 0.17 | 0.00 | 78 | 1013.4 |
| 20260901063513 | 71 | 0 | 0.0 | 0.0 | 0.00 | 0.17 | 0.00 | 78 | 1013.4 |
| 20260901063013 | 71 | 0 | 0.0 | 0.0 | 0.00 | 0.17 | 0.00 | 78 | 1013.4 |
| 20260901062534 | 71 | 0 | 0.0 | 0.0 | 0.00 | 0.18 | 0.00 | 78 | 1013.4 |
| 20260901062013 | 71 | 0 | 0.0 | 0.0 | 0.00 | 0.25 | 0.00 | 78 | 1013.5 |
| 20260901061513 | 71 | 0 | 0.0 | 0.0 | 0.00 | 0.28 | 0.00 | 78 | 1013.7 |
| 20260901061012 | 71 | 0 | 0.0 | 0.0 | 0.00 | 0.28 | 0.00 | 78 | 1013.8 |
| 20260901060513 | 71 | 167 | 0.0 | 0.0 | 0.00 | 0.28 | 0.00 | 78 | 1013.8 |
| 20260901060013 | 71 | 167 | 0.0 | 4.0 | 0.00 | 0.28 | 0.00 | 78 | 1013.9 |
| 20260901055513 | 71 | 167 | 0.0 | 4.0 | 0.00 | 0.28 | 0.00 | 78 | 1014.0 |
| 20260901055034 | 71 | 168 | 0.0 | 0.0 | 0.00 | 0.28 | 0.00 | 78 | 1013.9 |
| 20260901054533 | 71 | 168 | 0.0 | 1.0 | 0.00 | 0.28 | 0.00 | 78 | 1014.1 |
| 20260901054013 | 71 | 168 | 0.0 | 3.0 | 0.00 | 0.28 | 0.00 | 78 | 1014.1 |
| 20260901053533 | 71 | 168 | 0.0 | 3.0 | 0.00 | 0.28 | 0.00 | 78 | 1014.2 |
| 20260901053012 | 71 | 167 | 0.0 | 0.0 | 0.00 | 0.28 | 0.00 | 78 | 1014.1 |
| 20260901052512 | 71 | 168 | 0.0 | 1.0 | 0.00 | 0.28 | 0.00 | 78 | 1014.2 |
| 20260901052012 | 71 | 167 | 0.0 | 3.0 | 0.00 | 0.28 | 0.00 | 78 | 1014.2 |
| 20260901051513 | 71 | 168 | 1.0 | 4.0 | 0.00 | 0.28 | 0.00 | 78 | 1014.2 |
| 20260901051012 | 71 | 168 | 1.0 | 5.0 | 0.00 | 0.28 | 0.00 | 78 | 1014.2 |
| 20260901050512 | 71 | 0 | 0.0 | 0.0 | 0.00 | 0.28 | 0.00 | 78 | 1014.1 |
| 20260901050013 | 71 | 0 | 0.0 | 0.0 | 0.00 | 0.28 | 0.00 | 78 | 1014.2 |
| 20260901045512 | 71 | 0 | 0.0 | 0.0 | 0.00 | 0.28 | 0.00 | 78 | 1014.3 |
| 20260901045012 | 71 | 0 | 0.0 | 0.0 | 0.00 | 0.28 | 0.00 | 78 | 1014.2 |
| 20260901044513 | 71 | 0 | 0.0 | 0.0 | 0.00 | 0.28 | 0.00 | 78 | 1014.2 |
| 20260901044013 | 71 | 0 | 0.0 | 0.0 | 0.00 | 0.28 | 0.00 | 78 | 1014.2 |
| 20260901043512 | 71 | 168 | 0.0 | 0.0 | 0.00 | 0.28 | 0.00 | 78 | 1014.2 |
| 20260901043012 | 71 | 168 | 1.0 | 5.0 | 0.00 | 0.28 | 0.00 | 78 | 1014.2 |
| 20260901042512 | 71 | 167 | 0.0 | 5.0 | 0.00 | 0.28 | 0.00 | 78 | 1014.3 |
| 20260901042012 | 71 | 166 | 1.0 | 0.0 | 0.00 | 0.28 | 0.00 | 78 | 1014.3 |
| 20260901041512 | 71 | 166 | 1.0 | 7.0 | 0.00 | 0.28 | 0.00 | 78 | 1014.4 |
| 20260901041033 | 71 | 167 | 1.0 | 0.0 | 0.00 | 0.28 | 0.00 | 78 | 1014.4 |
| 20260901040512 | 71 | 167 | 2.0 | 5.0 | 0.00 | 0.28 | 0.00 | 78 | 1014.4 |
| 20260901040013 | 71 | 167 | 2.0 | 5.0 | 0.00 | 0.28 | 0.00 | 78 | 1014.4 |
| 20260901035512 | 71 | 168 | 1.0 | 7.0 | 0.00 | 0.28 | 0.28 | 78 | 1014.6 |
| 20260901035012 | 71 | 168 | 1.0 | 5.0 | 0.00 | 0.28 | 0.28 | 78 | 1014.6 |
| 20260901034513 | 71 | 168 | 1.0 | 4.0 | 0.00 | 0.28 | 0.28 | 78 | 1014.8 |
| 20260901034012 | 71 | 167 | 1.0 | 5.0 | 0.00 | 0.28 | 0.28 | 78 | 1014.8 |
| 20260901033512 | 71 | 167 | 1.0 | 5.0 | 0.00 | 0.28 | 0.28 | 78 | 1014.8 |
| 20260901033012 | 71 | 167 | 1.0 | 5.0 | 0.00 | 0.28 | 0.28 | 78 | 1014.9 |
| 20260901032533 | 71 | 167 | 1.0 | 7.0 | 0.00 | 0.28 | 0.28 | 78 | 1014.8 |
| 20260901032013 | 71 | 135 | 1.0 | 7.0 | 0.00 | 0.28 | 0.28 | 78 | 1014.8 |
| 20260901031512 | 71 | 360 | 1.0 | 4.0 | 0.00 | 0.28 | 0.28 | 78 | 1014.7 |
| 20260901031013 | 71 | 360 | 0.0 | 5.0 | 0.00 | 0.28 | 0.28 | 78 | 1014.7 |
| 20260901030513 | 71 | 360 | 0.0 | 4.0 | 0.00 | 0.28 | 0.28 | 78 | 1014.7 |
| 20260901030013 | 71 | 360 | 0.0 | 0.0 | 0.00 | 0.28 | 0.28 | 78 | 1014.8 |
| 20260901025512 | 71 | 360 | 0.0 | 1.0 | 0.00 | 0.28 | 0.28 | 78 | 1014.8 |
| 20260901025034 | 71 | 360 | 0.0 | 5.0 | 0.00 | 0.28 | 0.28 | 78 | 1014.8 |
| 20260901024512 | 71 | 0 | 0.0 | 0.0 | 0.00 | 0.28 | 0.28 | 78 | 1014.8 |
| 20260901024012 | 71 | 0 | 0.0 | 0.0 | 0.00 | 0.28 | 0.28 | 78 | 1014.7 |
| 20260901023512 | 71 | 0 | 0.0 | 0.0 | 0.00 | 0.28 | 0.28 | 78 | 1014.7 |
| 20260901023012 | 71 | 360 | 1.0 | 0.0 | 0.00 | 0.28 | 0.28 | 78 | 1014.7 |
| 20260901022513 | 72 | 360 | 1.0 | 5.0 | 0.00 | 0.28 | 0.28 | 78 | 1014.9 |
| 20260901022013 | 72 | 360 | 1.0 | 5.0 | 0.00 | 0.28 | 0.28 | 78 | 1014.8 |
| 20260901021512 | 72 | 360 | 1.0 | 4.0 | 0.00 | 0.28 | 0.28 | 78 | 1014.8 |
| 20260901021013 | 72 | 360 | 1.0 | 4.0 | 0.00 | 0.28 | 0.28 | 78 | 1014.8 |
| 20260901020512 | 72 | 360 | 1.0 | 5.0 | 0.00 | 0.29 | 0.28 | 78 | 1014.8 |
| 20260901020013 | 72 | 360 | 1.0 | 4.0 | 0.00 | 0.29 | 0.28 | 78 | 1014.7 |
| 20260901015513 | 72 | 360 | 1.0 | 4.0 | 0.00 | 0.29 | 0.28 | 78 | 1014.8 |
| 20260901015012 | 72 | 360 | 1.0 | 4.0 | 0.00 | 0.29 | 0.28 | 78 | 1014.9 |
| 20260901014512 | 72 | 360 | 1.0 | 3.0 | 0.00 | 0.29 | 0.28 | 78 | 1014.8 |
| 20260901014012 | 72 | 360 | 1.0 | 5.0 | 0.00 | 0.29 | 0.28 | 78 | 1015.0 |
| 20260901013533 | 72 | 360 | 1.0 | 3.0 | 0.00 | 0.29 | 0.28 | 78 | 1015.0 |
| 20260901013012 | 72 | 3 | 1.0 | 5.0 | 0.00 | 0.29 | 0.28 | 78 | 1014.9 |
| 20260901012513 | 72 | 10 | 1.0 | 5.0 | 0.00 | 0.29 | 0.28 | 78 | 1014.9 |
| 20260901012013 | 72 | 10 | 1.0 | 5.0 | 0.00 | 0.30 | 0.28 | 78 | 1015.0 |
| 20260901011512 | 72 | 2 | 1.0 | 4.0 | 0.00 | 0.31 | 0.28 | 78 | 1014.9 |
| 20260901011033 | 72 | 360 | 1.0 | 3.0 | 0.00 | 0.31 | 0.28 | 78 | 1015.0 |
| 20260901010512 | 72 | 360 | 2.0 | 4.0 | 0.00 | 0.32 | 0.28 | 78 | 1014.9 |
| 20260901010034 | 72 | 360 | 2.0 | 4.0 | 0.00 | 0.35 | 0.28 | 78 | 1014.8 |
| 20260901005534 | 72 | 360 | 2.0 | 5.0 | 0.00 | 0.36 | 0.28 | 78 | 1014.9 |
| 20260901005033 | 72 | 360 | 2.0 | 4.0 | 0.00 | 0.37 | 0.28 | 78 | 1014.9 |
| 20260901004513 | 72 | 360 | 3.0 | 5.0 | 0.00 | 0.43 | 0.28 | 78 | 1014.8 |
| 20260901004012 | 72 | 360 | 3.0 | 5.0 | 0.00 | 0.46 | 0.28 | 78 | 1015.0 |
| 20260901003512 | 72 | 360 | 2.0 | 5.0 | 0.00 | 0.48 | 0.28 | 78 | 1015.0 |
| 20260901003012 | 72 | 360 | 2.0 | 5.0 | 0.00 | 0.49 | 0.28 | 78 | 1015.0 |
| 20260901002533 | 72 | 360 | 3.0 | 5.0 | 0.00 | 0.50 | 0.28 | 78 | 1015.1 |
| 20260901002012 | 72 | 360 | 2.0 | 7.0 | 0.00 | 0.51 | 0.28 | 77 | 1015.2 |
| 20260901001533 | 73 | 360 | 1.0 | 5.0 | 0.00 | 0.51 | 0.28 | 77 | 1015.3 |
| 20260901001012 | 73 | 360 | 2.0 | 4.0 | 0.00 | 0.51 | 0.28 | 77 | 1015.3 |
| 20260901000512 | 73 | 360 | 3.0 | 8.0 | 0.00 | 0.51 | 0.28 | 77 | 1015.3 |
| 20260901000033 | 73 | 360 | 2.0 | 7.0 | 0.00 | 0.51 | 0.28 | 77 | 1015.4 |
| 20260831235513 | 73 | 360 | 2.0 | 7.0 | 0.00 | 0.51 | 0.28 | 77 | 1015.4 |
| 20260831235012 | 74 | 360 | 2.0 | 7.0 | 0.00 | 0.51 | 0.28 | 77 | 1015.4 |
| 20260831234513 | 74 | 360 | 2.0 | 7.0 | 0.00 | 0.51 | 0.28 | 77 | 1015.6 |
| 20260831234012 | 74 | 360 | 2.0 | 5.0 | 0.00 | 0.52 | 0.28 | 77 | 1015.6 |
| 20260831233512 | 74 | 360 | 2.0 | 7.0 | 0.00 | 0.53 | 0.28 | 77 | 1015.5 |
| 20260831233012 | 74 | 360 | 2.0 | 7.0 | 0.00 | 0.53 | 0.28 | 77 | 1015.5 |
| 20260831232512 | 74 | 360 | 1.0 | 4.0 | 0.00 | 0.53 | 0.28 | 77 | 1015.7 |
| 20260831232012 | 74 | 360 | 2.0 | 5.0 | 0.00 | 0.53 | 0.28 | 77 | 1015.7 |
| 20260831231533 | 74 | 360 | 3.0 | 8.0 | 0.00 | 0.54 | 0.28 | 77 | 1015.4 |
| 20260831231012 | 74 | 360 | 3.0 | 7.0 | 0.00 | 0.54 | 0.28 | 77 | 1015.5 |
| 20260831230512 | 74 | 360 | 4.0 | 8.0 | 0.00 | 0.54 | 0.28 | 75 | 1015.5 |
| 20260831230012 | 74 | 360 | 4.0 | 8.0 | 0.00 | 0.54 | 0.28 | 75 | 1015.2 |
| 20260831225512 | 75 | 360 | 3.0 | 8.0 | 0.00 | 0.54 | 0.28 | 75 | 1015.4 |
| 20260831225033 | 75 | 360 | 2.0 | 5.0 | 0.00 | 0.54 | 0.28 | 75 | 1015.5 |
| 20260831224512 | 75 | 360 | 2.0 | 7.0 | 0.00 | 0.54 | 0.28 | 74 | 1015.6 |
| 20260831224012 | 75 | 360 | 2.0 | 4.0 | 0.00 | 0.55 | 0.28 | 74 | 1015.7 |
| 20260831223512 | 75 | 360 | 2.0 | 5.0 | 0.00 | 0.55 | 0.28 | 74 | 1015.9 |
| 20260831223012 | 75 | 360 | 3.0 | 7.0 | 0.00 | 0.57 | 0.28 | 74 | 1015.5 |
| 20260831222512 | 76 | 360 | 2.0 | 4.0 | 0.00 | 0.57 | 0.28 | 74 | 1015.7 |
| 20260831222012 | 75 | 360 | 2.0 | 4.0 | 0.00 | 0.57 | 0.28 | 74 | 1015.7 |
| 20260831221512 | 75 | 360 | 1.0 | 5.0 | 0.00 | 0.57 | 0.28 | 74 | 1015.8 |
| 20260831221012 | 75 | 360 | 1.0 | 4.0 | 0.00 | 0.58 | 0.28 | 74 | 1015.7 |
| 20260831220533 | 75 | 360 | 1.0 | 3.0 | 0.00 | 0.58 | 0.28 | 74 | 1015.6 |
| 20260831220012 | 75 | 360 | 1.0 | 4.0 | 0.00 | 0.58 | 0.28 | 75 | 1015.4 |
| 20260831215533 | 75 | 360 | 2.0 | 4.0 | 0.00 | 0.58 | 0.28 | 75 | 1015.3 |
| 20260831215012 | 75 | 360 | 3.0 | 5.0 | 0.00 | 0.58 | 0.28 | 75 | 1015.2 |
| 20260831214512 | 75 | 360 | 2.0 | 5.0 | 0.00 | 0.58 | 0.28 | 75 | 1015.3 |
| 20260831214012 | 75 | 360 | 3.0 | 4.0 | 0.00 | 0.58 | 0.28 | 75 | 1015.3 |
| 20260831213512 | 75 | 360 | 4.0 | 7.0 | 0.00 | 0.59 | 0.28 | 75 | 1015.2 |
| 20260831213012 | 75 | 9 | 5.0 | 11.0 | 0.00 | 0.61 | 0.28 | 75 | 1015.2 |
| 20260831212512 | 75 | 12 | 5.0 | 8.0 | 0.00 | 0.62 | 0.28 | 75 | 1015.2 |
| 20260831212012 | 76 | 3 | 4.0 | 12.0 | 0.00 | 0.63 | 0.28 | 77 | 1015.3 |
| 20260831211533 | 75 | 360 | 4.0 | 7.0 | 0.00 | 0.63 | 0.28 | 77 | 1015.3 |
| 20260831211013 | 75 | 360 | 6.0 | 11.0 | 0.00 | 0.64 | 0.28 | 77 | 1015.2 |
| 20260831210512 | 75 | 360 | 5.0 | 11.0 | 0.00 | 0.65 | 0.28 | 77 | 1015.2 |
| 20260831210012 | 75 | 360 | 4.0 | 7.0 | 0.00 | 0.65 | 0.28 | 78 | 1015.1 |
| 20260831205512 | 74 | 360 | 4.0 | 7.0 | 0.00 | 0.65 | 0.28 | 77 | 1015.2 |
| 20260831205012 | 74 | 360 | 4.0 | 8.0 | 0.00 | 0.65 | 0.28 | 77 | 1015.2 |
| 20260831204512 | 74 | 360 | 4.0 | 7.0 | 0.00 | 0.65 | 0.28 | 77 | 1015.5 |
| 20260831204012 | 74 | 360 | 2.0 | 5.0 | 0.01 | 0.65 | 0.28 | 77 | 1015.4 |
| 20260831203512 | 74 | 360 | 1.0 | 4.0 | 0.01 | 0.65 | 0.28 | 75 | 1015.6 |
| 20260831203012 | 74 | 360 | 0.0 | 1.0 | 0.01 | 0.65 | 0.28 | 75 | 1015.9 |
| 20260831202512 | 74 | 360 | 0.0 | 4.0 | 0.01 | 0.66 | 0.28 | 75 | 1016.0 |
| 20260831202012 | 74 | 360 | 1.0 | 3.0 | 0.01 | 0.66 | 0.28 | 75 | 1016.0 |
| 20260831201512 | 74 | 360 | 1.0 | 4.0 | 0.01 | 0.69 | 0.28 | 75 | 1016.0 |
| 20260831201012 | 75 | 360 | 1.0 | 4.0 | 0.01 | 0.70 | 0.28 | 74 | 1016.0 |
| 20260831200512 | 75 | 360 | 1.0 | 4.0 | 0.01 | 0.72 | 0.28 | 74 | 1016.0 |
| 20260831200012 | 75 | 360 | 1.0 | 4.0 | 0.01 | 0.72 | 0.28 | 74 | 1016.1 |
| 20260831195512 | 75 | 360 | 1.0 | 4.0 | 0.01 | 0.72 | 0.28 | 74 | 1016.2 |
| 20260831195012 | 75 | 0 | 0.0 | 0.0 | 0.01 | 0.72 | 0.28 | 74 | 1016.2 |
| 20260831194512 | 75 | 360 | 0.0 | 0.0 | 0.01 | 0.75 | 0.28 | 74 | 1016.3 |
| 20260831194012 | 75 | 360 | 0.0 | 1.0 | 0.00 | 0.76 | 0.27 | 73 | 1016.3 |
| 20260831193512 | 75 | 360 | 0.0 | 1.0 | 0.00 | 0.79 | 0.27 | 73 | 1015.9 |
| 20260831193012 | 75 | 360 | 0.0 | 1.0 | 0.00 | 0.81 | 0.27 | 73 | 1016.1 |
| 20260831192512 | 75 | 360 | 0.0 | 1.0 | 0.00 | 0.83 | 0.27 | 73 | 1016.3 |
| 20260831192012 | 75 | 360 | 0.0 | 3.0 | 0.00 | 0.84 | 0.27 | 73 | 1016.5 |
| 20260831191512 | 75 | 360 | 0.0 | 3.0 | 0.00 | 0.86 | 0.27 | 73 | 1016.6 |
| 20260831191012 | 76 | 360 | 0.0 | 1.0 | 0.00 | 0.87 | 0.27 | 74 | 1016.5 |
| 20260831190512 | 75 | 0 | 0.0 | 0.0 | 0.00 | 0.87 | 0.27 | 74 | 1016.5 |
| 20260831190012 | 75 | 360 | 0.0 | 0.0 | 0.00 | 0.88 | 0.27 | 74 | 1016.7 |
| 20260831185512 | 75 | 360 | 1.0 | 4.0 | 0.00 | 0.88 | 0.27 | 74 | 1016.9 |
| 20260831185013 | 75 | 360 | 1.0 | 4.0 | 0.00 | 0.88 | 0.27 | 74 | 1017.0 |
| 20260831184533 | 75 | 360 | 1.0 | 5.0 | 0.00 | 0.89 | 0.27 | 75 | 1017.4 |
| 20260831184012 | 75 | 360 | 1.0 | 4.0 | 0.00 | 0.89 | 0.27 | 75 | 1017.5 |
| 20260831183513 | 75 | 360 | 1.0 | 4.0 | 0.00 | 0.89 | 0.27 | 75 | 1017.4 |
| 20260831183033 | 75 | 360 | 1.0 | 4.0 | 0.00 | 0.89 | 0.27 | 77 | 1017.1 |
| 20260831182512 | 75 | 360 | 1.0 | 4.0 | 0.00 | 0.89 | 0.27 | 77 | 1017.0 |
| 20260831182012 | 74 | 360 | 1.0 | 4.0 | 0.00 | 0.89 | 0.27 | 77 | 1017.1 |
| 20260831181533 | 74 | 360 | 0.0 | 3.0 | 0.00 | 0.89 | 0.27 | 77 | 1017.0 |
| 20260831181033 | 74 | 0 | 0.0 | 0.0 | 0.00 | 0.89 | 0.27 | 77 | 1017.0 |
| 20260831180533 | 74 | 0 | 0.0 | 0.0 | 0.00 | 0.89 | 0.27 | 77 | 1016.8 |
| 20260831180012 | 74 | 0 | 0.0 | 0.0 | 0.00 | 0.89 | 0.27 | 77 | 1016.7 |
| 20260831175512 | 74 | 0 | 0.0 | 0.0 | 0.00 | 0.89 | 0.27 | 77 | 1016.8 |
| 20260831175012 | 74 | 0 | 0.0 | 0.0 | 0.00 | 0.89 | 0.27 | 77 | 1016.8 |
| 20260831174512 | 74 | 0 | 0.0 | 0.0 | 0.00 | 0.89 | 0.27 | 77 | 1017.1 |
| 20260831174012 | 74 | 0 | 0.0 | 0.0 | 0.00 | 0.89 | 0.27 | 77 | 1017.2 |
| 20260831173512 | 74 | 0 | 0.0 | 0.0 | 0.01 | 0.89 | 0.27 | 77 | 1017.2 |
| 20260831173012 | 74 | 0 | 0.0 | 0.0 | 0.02 | 0.89 | 0.27 | 77 | 1017.1 |
| 20260831172512 | 74 | 0 | 0.0 | 0.0 | 0.02 | 0.89 | 0.27 | 77 | 1017.1 |
| 20260831172012 | 74 | 0 | 0.0 | 0.0 | 0.02 | 0.90 | 0.27 | 77 | 1017.2 |
| 20260831171512 | 74 | 0 | 0.0 | 0.0 | 0.02 | 0.90 | 0.27 | 77 | 1017.3 |
| 20260831171012 | 74 | 360 | 0.0 | 0.0 | 0.02 | 0.91 | 0.27 | 77 | 1017.3 |
| 20260831170512 | 74 | 360 | 0.0 | 3.0 | 0.02 | 0.91 | 0.27 | 77 | 1017.5 |
| 20260831170012 | 74 | 360 | 0.0 | 4.0 | 0.02 | 0.93 | 0.27 | 77 | 1017.7 |
| 20260831165512 | 74 | 360 | 1.0 | 4.0 | 0.05 | 0.94 | 0.27 | 77 | 1018.0 |
| 20260831165012 | 74 | 360 | 1.0 | 5.0 | 0.06 | 0.94 | 0.27 | 77 | 1018.1 |
| 20260831164533 | 74 | 360 | 1.0 | 4.0 | 0.06 | 0.95 | 0.27 | 77 | 1018.2 |
| 20260831164012 | 74 | 360 | 1.0 | 4.0 | 0.06 | 0.96 | 0.27 | 77 | 1018.2 |
| 20260831163512 | 74 | 360 | 1.0 | 3.0 | 0.07 | 0.97 | 0.26 | 77 | 1018.3 |
| 20260831163012 | 74 | 360 | 1.0 | 4.0 | 0.06 | 0.98 | 0.25 | 77 | 1018.3 |
| 20260831162512 | 74 | 360 | 1.0 | 4.0 | 0.06 | 0.99 | 0.25 | 77 | 1018.3 |
| 20260831162012 | 74 | 360 | 1.0 | 4.0 | 0.06 | 1.02 | 0.25 | 77 | 1018.2 |
| 20260831161512 | 74 | 360 | 1.0 | 5.0 | 0.06 | 1.03 | 0.25 | 77 | 1018.1 |
| 20260831161012 | 74 | 360 | 1.0 | 4.0 | 0.06 | 1.05 | 0.25 | 77 | 1018.0 |
| 20260831160512 | 75 | 360 | 1.0 | 3.0 | 0.06 | 1.06 | 0.25 | 77 | 1018.0 |
| 20260831160012 | 75 | 360 | 1.0 | 4.0 | 0.06 | 1.06 | 0.24 | 77 | 1017.9 |
| 20260831155512 | 75 | 360 | 1.0 | 4.0 | 0.03 | 1.04 | 0.22 | 77 | 1017.8 |
| 20260831155012 | 75 | 360 | 0.0 | 3.0 | 0.02 | 1.03 | 0.21 | 78 | 1017.6 |
| 20260831154512 | 75 | 360 | 0.0 | 3.0 | 0.02 | 1.03 | 0.21 | 78 | 1017.6 |
| 20260831154012 | 75 | 360 | 1.0 | 3.0 | 0.02 | 1.02 | 0.20 | 78 | 1017.6 |
| 20260831153512 | 75 | 360 | 1.0 | 5.0 | 0.00 | 1.01 | 0.20 | 78 | 1017.6 |
| 20260831153033 | 75 | 360 | 1.0 | 4.0 | 0.00 | 1.01 | 0.19 | 79 | 1017.5 |
| 20260831152533 | 75 | 360 | 0.0 | 5.0 | 0.00 | 1.01 | 0.19 | 79 | 1017.2 |
| 20260831152012 | 75 | 305 | 1.0 | 3.0 | 0.00 | 1.01 | 0.19 | 79 | 1017.1 |
| 20260831151533 | 75 | 298 | 1.0 | 8.0 | 0.00 | 1.01 | 0.19 | 79 | 1017.2 |
| 20260831151012 | 75 | 278 | 0.0 | 5.0 | 0.00 | 1.02 | 0.19 | 80 | 1017.0 |
| 20260831150512 | 75 | 279 | 0.0 | 3.0 | 0.00 | 1.02 | 0.19 | 80 | 1017.0 |
| 20260831150012 | 75 | 279 | 0.0 | 3.0 | 0.00 | 1.02 | 0.19 | 80 | 1016.9 |
| 20260831145512 | 75 | 286 | 0.0 | 1.0 | 0.00 | 1.02 | 0.19 | 80 | 1016.8 |
| 20260831145012 | 75 | 283 | 1.0 | 1.0 | 0.00 | 1.02 | 0.19 | 80 | 1016.9 |
| 20260831144512 | 75 | 233 | 2.0 | 5.0 | 0.00 | 1.02 | 0.19 | 80 | 1017.0 |
| 20260831144012 | 75 | 219 | 2.0 | 5.0 | 0.00 | 1.02 | 0.19 | 80 | 1017.0 |
| 20260831143512 | 75 | 242 | 1.0 | 5.0 | 0.00 | 1.02 | 0.19 | 81 | 1016.9 |
| 20260831143012 | 74 | 345 | 1.0 | 4.0 | 0.00 | 1.02 | 0.19 | 81 | 1017.0 |
| 20260831142512 | 74 | 358 | 2.0 | 7.0 | 0.00 | 1.02 | 0.19 | 81 | 1016.9 |
| 20260831142012 | 73 | 357 | 2.0 | 7.0 | 0.00 | 1.03 | 0.19 | 81 | 1016.8 |
| 20260831141512 | 73 | 245 | 1.0 | 5.0 | 0.00 | 1.03 | 0.19 | 81 | 1016.8 |
| 20260831141012 | 73 | 205 | 2.0 | 5.0 | 0.00 | 1.03 | 0.19 | 81 | 1016.8 |
| 20260831140512 | 73 | 188 | 3.0 | 5.0 | 0.00 | 1.04 | 0.19 | 81 | 1016.9 |
| 20260831140012 | 73 | 10 | 3.0 | 8.0 | 0.00 | 1.04 | 0.19 | 81 | 1017.0 |
| 20260831135511 | 73 | 360 | 2.0 | 4.0 | 0.00 | 1.04 | 0.19 | 81 | 1016.8 |
| 20260831135011 | 73 | 360 | 3.0 | 7.0 | 0.00 | 1.04 | 0.19 | 81 | 1016.7 |
| 20260831134512 | 72 | 360 | 3.0 | 5.0 | 0.01 | 1.05 | 0.19 | 81 | 1016.6 |
| 20260831134012 | 72 | 360 | 2.0 | 5.0 | 0.01 | 1.06 | 0.19 | 81 | 1016.6 |
| 20260831133512 | 72 | 360 | 1.0 | 4.0 | 0.01 | 1.06 | 0.19 | 81 | 1016.7 |
| 20260831133012 | 71 | 0 | 0.0 | 0.0 | 0.02 | 1.06 | 0.19 | 81 | 1016.9 |
| 20260831132533 | 71 | 0 | 0.0 | 0.0 | 0.02 | 1.07 | 0.19 | 81 | 1016.8 |
| 20260831132012 | 70 | 0 | 0.0 | 0.0 | 0.02 | 1.09 | 0.19 | 81 | 1016.7 |
| 20260831131512 | 70 | 0 | 0.0 | 0.0 | 0.02 | 1.10 | 0.19 | 81 | 1016.8 |
| 20260831131012 | 70 | 0 | 0.0 | 0.0 | 0.05 | 1.11 | 0.19 | 81 | 1016.7 |
| 20260831130512 | 70 | 169 | 0.0 | 0.0 | 0.07 | 1.12 | 0.19 | 81 | 1016.7 |
| 20260831130011 | 70 | 169 | 1.0 | 1.0 | 0.07 | 1.13 | 0.19 | 81 | 1016.6 |
| 20260831125512 | 70 | 168 | 1.0 | 5.0 | 0.07 | 1.14 | 0.19 | 81 | 1016.5 |
| 20260831125012 | 70 | 168 | 1.0 | 5.0 | 0.07 | 1.14 | 0.19 | 81 | 1016.2 |
| 20260831124512 | 70 | 168 | 2.0 | 5.0 | 0.06 | 1.14 | 0.18 | 81 | 1016.0 |
| 20260831124012 | 70 | 163 | 3.0 | 7.0 | 0.06 | 1.15 | 0.18 | 81 | 1015.9 |
| 20260831123512 | 70 | 158 | 4.0 | 9.0 | 0.06 | 1.15 | 0.18 | 81 | 1015.9 |